LUCH-5X (OLYMP-K 2)

Last updated on Thu Nov 21 2024 00:02:45 GMT+0000 (Coordinated Universal Time)

1 55841U 23031A 24325.59035241 -.00000009 00000+0 00000+0 0 9995 2 55841 0.0102 339.3780 0001537 278.8824 13.4658 1.00271228 6192
UTC large
Height (km)
Speed (km/s)
/
Latitude / Longitude
Inclination (degrees)
Orbital Period (minutes)
Azimuth
Elevation
Range (km)
Doppler Factor

Next 0 passes for location: London (51.5072 / 0.1276)

Sorry there are no passes over London.